Location: ?????????
(54.7630°N, 39.4991°E)
Time: 19:13:31
(UTC+00:00)

Cosmos 371 Rocket - Pass Details

Date: 14 April 2026
Orbit: 674 x 689 km, 74.0° (Epoch: 19 May)

Event Time Altitude Azimuth Distance (km) Brightness Sun altitude
Rises 21:29:21 0° 328° (NNW) 3,067 7.5 -25.6°
Reaches altitude 10° 21:31:48 10° 319° (NW) 2,148 6.4 -25.5°
Enters shadow 21:35:28 33° 274° (W) 1,155 4.4 -25.5°
